• In Uzbekistan
  • List of Countries
  • For 7 days
  • Water Temperature
  • Satellite Maps
  • Weather Map
  • Weather Widgets
  • user-avatar
    Login

    Hourly Weather Sumgayit

    Today, 18 February, Sunday

    Time Temperature Precipitation Wind Pressure Humidity
    00:00 +5°C° 0 mm 3 mps 743 mmHg 90%
    01:00 +5°C° 0 mm 3 mps 743 mmHg 90%
    02:00 +6°C° 0 mm 2 mps 742 mmHg 90%
    03:00 +6°C° 0 mm 2 mps 742 mmHg 90%
    04:00 +6°C° 0 mm 2 mps 741 mmHg 90%
    05:00 +6°C° 0 mm 2 mps 741 mmHg 89%
    06:00 +6°C° 0 mm 2 mps 741 mmHg 88%
    07:00 +6°C° 0 mm 2 mps 741 mmHg 86%
    08:00 +6°C° 0 mm 2 mps 741 mmHg 85%
    09:00 +6°C° 0 mm 2 mps 741 mmHg 83%
    10:00 +6°C° 0.7 mm 2 mps 741 mmHg 84%
    11:00 +6°C° 0.7 mm 2 mps 740 mmHg 84%
    12:00 +5°C° 0.7 mm 3 mps 740 mmHg 85%
    13:00 +5°C° 1.2 mm 4 mps 740 mmHg 85%
    14:00 +5°C° 1.2 mm 5 mps 740 mmHg 85%
    15:00 +3°C° 1.2 mm 6 mps 739 mmHg 86%
    16:00 +2°C° 1.1 mm 8 mps 739 mmHg 85%
    17:00 +2°C° 1.1 mm 9 mps 739 mmHg 84%
    18:00 +2°C° 1.1 mm 10 mps 739 mmHg 83%
    19:00 +2°C° 1.4 mm 10 mps 740 mmHg 84%
    20:00 +1°C° 1.4 mm 9 mps 740 mmHg 84%
    21:00 +1°C° 1.4 mm 9 mps 740 mmHg 84%
    22:00 +1°C° 0.8 mm 9 mps 740 mmHg 85%
    23:00 +1°C° 0.8 mm 8 mps 740 mmHg 85%

    Tomorrow, 19 February, Monday

    Time Temperature Precipitation Wind Pressure Humidity
    00:00 +1°C° 0.8 mm 8 mps 740 mmHg 86%
    01:00 +2°C° 0.3 mm 7 mps 740 mmHg 86%
    02:00 +2°C° 0.3 mm 7 mps 740 mmHg 87%
    03:00 +2°C° 0.3 mm 6 mps 740 mmHg 87%
    04:00 +2°C° 0.1 mm 6 mps 740 mmHg 87%
    05:00 +2°C° 0.1 mm 5 mps 741 mmHg 88%
    06:00 +2°C° 0.1 mm 5 mps 741 mmHg 88%
    07:00 +2°C° 0.1 mm 5 mps 741 mmHg 86%
    08:00 +2°C° 0.1 mm 5 mps 741 mmHg 85%
    09:00 +3°C° 0.1 mm 6 mps 741 mmHg 84%
    10:00 +3°C° 0 mm 5 mps 741 mmHg 82%
    11:00 +3°C° 0 mm 5 mps 741 mmHg 81%
    12:00 +5°C° 0 mm 5 mps 741 mmHg 79%
    13:00 +5°C° 0 mm 5 mps 741 mmHg 79%
    14:00 +5°C° 0 mm 5 mps 741 mmHg 79%
    15:00 +5°C° 0 mm 4 mps 741 mmHg 79%
    16:00 +4°C° 0 mm 4 mps 741 mmHg 80%
    17:00 +4°C° 0 mm 4 mps 741 mmHg 82%
    18:00 +4°C° 0 mm 4 mps 742 mmHg 83%
    19:00 +4°C° 0 mm 4 mps 742 mmHg 84%
    20:00 +4°C° 0 mm 4 mps 742 mmHg 84%
    21:00 +3°C° 0 mm 4 mps 742 mmHg 85%
    22:00 +3°C° 0 mm 4 mps 742 mmHg 86%
    23:00 +3°C° 0 mm 3 mps 742 mmHg 86%

    Day after tomorrow, 20 February, Tuesday

    Time Temperature Precipitation Wind Pressure Humidity
    00:00 +3°C° 0 mm 3 mps 743 mmHg 87%
    01:00 +3°C° 0 mm 3 mps 742 mmHg 87%
    02:00 +4°C° 0 mm 2 mps 742 mmHg 88%
    03:00 +4°C° 0 mm 2 mps 742 mmHg 89%
    04:00 +4°C° 0 mm 2 mps 742 mmHg 89%
    05:00 +5°C° 0 mm 1 mps 742 mmHg 89%
    06:00 +4°C° 0 mm 1 mps 743 mmHg 90%
    07:00 +5°C° 0 mm 1 mps 743 mmHg 88%
    08:00 +5°C° 0 mm 1 mps 743 mmHg 85%
    09:00 +6°C° 0 mm 1 mps 743 mmHg 83%
    10:00 +6°C° 0 mm 1 mps 743 mmHg 81%
    11:00 +6°C° 0 mm 2 mps 743 mmHg 79%
    12:00 +7°C° 0 mm 2 mps 743 mmHg 77%
    13:00 +7°C° 0 mm 2 mps 743 mmHg 76%
    14:00 +7°C° 0 mm 2 mps 742 mmHg 76%
    15:00 +7°C° 0 mm 3 mps 742 mmHg 75%
    16:00 +7°C° 0 mm 3 mps 742 mmHg 77%
    17:00 +7°C° 0 mm 3 mps 742 mmHg 79%
    18:00 +7°C° 0 mm 3 mps 743 mmHg 81%
    19:00 +5°C° 0 mm 3 mps 743 mmHg 83%
    20:00 +5°C° 0 mm 3 mps 743 mmHg 84%
    21:00 +5°C° 0 mm 3 mps 743 mmHg 86%
    22:00 +5°C° 0 mm 3 mps 743 mmHg 87%
    23:00 +4°C° 0 mm 3 mps 743 mmHg 87%

    21 February, Wednesday

    Time Temperature Precipitation Wind Pressure Humidity
    00:00 +5°C° 0 mm 2 mps 743 mmHg 88%
    01:00 +5°C° 0 mm 2 mps 743 mmHg 88%
    02:00 +5°C° 0 mm 2 mps 743 mmHg 88%
    03:00 +5°C° 0 mm 2 mps 743 mmHg 88%
    04:00 +5°C° 0 mm 2 mps 743 mmHg 88%
    05:00 +5°C° 0 mm 2 mps 743 mmHg 88%
    06:00 +5°C° 0 mm 2 mps 743 mmHg 87%
    07:00 +5°C° 0 mm 2 mps 743 mmHg 85%
    08:00 +6°C° 0 mm 2 mps 743 mmHg 83%
    09:00 +6°C° 0 mm 2 mps 744 mmHg 81%
    10:00 +5°C° 0 mm 3 mps 744 mmHg 79%
    11:00 +7°C° 0 mm 3 mps 744 mmHg 78%
    12:00 +7°C° 0 mm 3 mps 744 mmHg 76%
    13:00 +7°C° 0 mm 3 mps 743 mmHg 76%
    14:00 +7°C° 0 mm 3 mps 743 mmHg 75%
    15:00 +8°C° 0 mm 3 mps 743 mmHg 75%
    16:00 +7°C° 0 mm 3 mps 743 mmHg 76%
    17:00 +7°C° 0 mm 3 mps 743 mmHg 78%
    18:00 +5°C° 0 mm 3 mps 744 mmHg 80%
    19:00 +5°C° 0 mm 3 mps 744 mmHg 80%
    20:00 +6°C° 0 mm 2 mps 744 mmHg 80%
    21:00 +6°C° 0 mm 2 mps 744 mmHg 80%
    22:00 +5°C° 0 mm 2 mps 744 mmHg 81%
    23:00 +5°C° 0 mm 2 mps 744 mmHg 81%

    22 February, Thursday

    Time Temperature Precipitation Wind Pressure Humidity
    00:00 +5°C° 0 mm 2 mps 744 mmHg 81%
    01:00 +5°C° 0 mm 2 mps 743 mmHg 82%
    02:00 +4°C° 0 mm 2 mps 743 mmHg 82%
    03:00 +5°C° 0 mm 1 mps 743 mmHg 83%
    04:00 +5°C° 0 mm 1 mps 743 mmHg 83%
    05:00 +5°C° 0 mm 1 mps 743 mmHg 83%
    06:00 +5°C° 0 mm 1 mps 743 mmHg 83%
    07:00 +6°C° 0 mm 1 mps 743 mmHg 79%
    08:00 +6°C° 0 mm 1 mps 743 mmHg 75%
    09:00 +7°C° 0 mm 1 mps 743 mmHg 71%
    10:00 +7°C° 0 mm 2 mps 743 mmHg 69%
    11:00 +8°C° 0 mm 3 mps 742 mmHg 67%
    12:00 +7°C° 0 mm 4 mps 742 mmHg 64%
    13:00 +8°C° 0 mm 4 mps 742 mmHg 64%
    14:00 +8°C° 0 mm 4 mps 741 mmHg 63%
    15:00 +8°C° 0 mm 5 mps 741 mmHg 62%
    16:00 +8°C° 0 mm 5 mps 741 mmHg 66%
    17:00 +7°C° 0 mm 4 mps 741 mmHg 69%
    18:00 +7°C° 0 mm 4 mps 741 mmHg 72%
    19:00 +7°C° 0 mm 4 mps 741 mmHg 74%
    20:00 +6°C° 0 mm 4 mps 741 mmHg 76%
    21:00 +7°C° 0 mm 3 mps 741 mmHg 78%
    22:00 +7°C° 0 mm 3 mps 741 mmHg 80%
    23:00 +5°C° 0 mm 3 mps 740 mmHg 81%

    23 February, Friday

    Time Temperature Precipitation Wind Pressure Humidity
    00:00 +6°C° 0 mm 2 mps 740 mmHg 82%
    01:00 +6°C° 0 mm 2 mps 740 mmHg 83%
    02:00 +6°C° 0 mm 2 mps 740 mmHg 84%
    03:00 +6°C° 0 mm 1 mps 740 mmHg 84%
    04:00 +6°C° 0 mm 1 mps 740 mmHg 85%
    05:00 +6°C° 0 mm 1 mps 740 mmHg 86%
    06:00 +6°C° 0 mm 1 mps 740 mmHg 87%
    07:00 +5°C° 0 mm 2 mps 741 mmHg 83%
    08:00 +6°C° 0 mm 2 mps 741 mmHg 78%
    09:00 +7°C° 0 mm 3 mps 741 mmHg 74%
    10:00 +8°C° 0 mm 3 mps 741 mmHg 71%
    11:00 +8°C° 0 mm 4 mps 741 mmHg 67%
    12:00 +8°C° 0 mm 4 mps 741 mmHg 64%
    13:00 +9°C° 0 mm 5 mps 741 mmHg 63%
    14:00 +9°C° 0 mm 5 mps 741 mmHg 63%
    15:00 +9°C° 0 mm 5 mps 741 mmHg 62%
    16:00 +8°C° 0 mm 4 mps 741 mmHg 65%
    17:00 +7°C° 0 mm 4 mps 742 mmHg 68%
    18:00 +7°C° 0 mm 4 mps 742 mmHg 72%
    19:00 +7°C° 0 mm 3 mps 742 mmHg 74%
    20:00 +7°C° 0 mm 3 mps 742 mmHg 76%
    21:00 +6°C° 0 mm 2 mps 742 mmHg 78%
    22:00 +6°C° 0 mm 2 mps 742 mmHg 79%
    23:00 +6°C° 0 mm 2 mps 742 mmHg 80%
    Show more